Weather in Buenos Aires

Argentina     34˚36′56″S   58˚26′06″W
temp.,
°C
wind,
m/s
gust,
m/s
humid.,
%
clouds,
%
prec.,
mm/h
press.,
hPa
HPBL,
m
2 december, wed
wed200:00+22˚ne35650 0.0 1010195
03:00+21˚n36610 0.0 1009245
06:00+21˚n376474 0.0 1010312
09:00+23˚nne356471 0.0 1010336
12:00+27˚ene1253100 0.3 1008721
15:00+28˚e2251100 0.8 1005855
18:00+22˚nnw4675100 3.3 1005220
21:00+21˚nne5673100 4.8 1007238
3 december, thu
thu300:00+21˚s247197 0.1 1009372
03:00+20˚s568271 0.1 1007532
06:00+19˚sse365246 0.0 1007356
09:00+23˚s132724 0.0 1009505
12:00+26˚ese24240 0.0 10091300
15:00+27˚se14210 0.0 10081731
18:00+27˚e14280 0.0 10071005
21:00+25˚nnw243345 0.0 1010218
4 december, fri
fri400:00+25˚wnw41031100 0.0 1013661
03:00+20˚se9126274 0.0 1015827
06:00+18˚sse69490 0.0 1018734
09:00+19˚sse57450 0.0 1021913
12:00+22˚s572356 0.0 10201796
15:00+24˚sse452829 0.0 10201609
18:00+20˚e6752100 0.0 1020726
21:00+18˚e7866100 0.0 1023810
5 december, sat
sat500:00+18˚e6764100 0.0 10241183
03:00+17˚ese566199 0.0 10251143
06:00+16˚e336316 0.0 1026790
09:00+18˚e335110 0.0 10261036
12:00+20˚ene43440 0.0 1025714
15:00+21˚ene54370 0.0 1022521
18:00+20˚e68520 0.0 1021565
21:00+20˚e710500 0.0 1022658
6 december, sun
sun600:00+18˚ene68520 0.0 1023548
03:00+18˚ne57580 0.0 1021496
06:00+16˚n45700 0.0 1022322
09:00+19˚n23560 0.0 1022449
12:00+22˚ene32450 0.0 1021613
15:00+24˚e44350 0.0 1019594
18:00+24˚e44420 0.0 1017460
21:00+22˚e47600 0.0 1018282